CZ-6A DEB

Satellite information

Favourite Embed

Satellite Type and Status

DEBRISIN ORBIT

Key statistics

Satellite CZ-6A DEB at a glance.

Uptime

969

Days in orbit

Revolutions

≈ 14.2

Per day

Orbit

SSO

Sun Synchronous Orbit

Inclination

98.9

Latest

Satellite identification and parameters

Extended collection of information and parameters for CZ-6A DEB.

Object identification

Identified? True

Debris? True

Object name: CZ-6A DEB

International designator: 2022-151AEG

Object number (NORAD): 56608

Object ID (CCSDS): 56608

Country: PEOPLES REPUBLIC OF CHINA (PRC)

Current information (Y/N): Y

RCS size: SMALL

Orbital parameters

Period: 101.752 minutes

Inclination: 98.9142 deg

SMA: 7219.732 km

Apoapsis: 864.948 km

Periapsis: 818.246 km

RAAN: 205.379 deg

Eccentricy: 0.0032343

Argument of periapsis: 223.6037 deg

Mean anomaly: 136.258 deg

Mean motion: 14.15210846 rev/day

Mean motion (dot): 0.00001826 rev/day2

B* drag term: 0.00095782 1/REarth

Two-line elements (TLE)

Creation date: July 5, 2025, 5:45 p.m.

Reference frame: TEME

Reference center: EARTH

Epoch: July 5, 2025, 12:05 p.m. UTC

TLE line 0: 0 CZ-6A DEB

TLE line 1: 1 56608U 22151AEG 25186.50394396 .00001826 00000-0 95782-3 0 9998

TLE line 2: 2 56608 98.9142 205.3790 0032343 223.6037 136.2580 14.15210846113512

Live tracking on map

Real-time ground track for satellite CZ-6A DEB.

In-orbit conjunctions

A list of the most updated potential collisions computed for object CZ-6A DEB.

Target Orbit TCA Probability of collision Miss distance Type
CZ-6A DEB LEO 2025-04-27 03:19:46 0.0001539374 66.0 (m) DEBRIS
SL-3 R/B LEO 2024-12-03 05:01:52 0.000113088 527.0 (m) ROCKET BODY
SL-3 R/B LEO 2024-10-09 10:49:39 0.0003309959 326.0 (m) ROCKET BODY
FENGYUN 1C DEB SSO 2024-09-03 22:50:54 0.0002873971 220.0 (m) DEBRIS
FENGYUN 1C DEB SSO 2024-06-22 17:50:16 0.0001112499 176.0 (m) DEBRIS

Associated space launch

Chinese satellite reported for atmospheric/ocean/environmental/spatial parameter research purposes, details TBD.

CZ-6A DEB was lifted into orbit during the mission ‘Long March 6A | Yunhai 3’, on board a Long March 6A space rocket.

The launch took place on Nov. 11, 2022, 10:52 p.m. from Launch Complex 9A.

For more information about the launch, click the button.

Launch to space Long March 6A | Yunhai 3
Long March 6A | Yunhai 3

Agency: N/A

Status: Launch Successful

Launch date: Nov. 11, 2022, 10:52 p.m. UTC

Rocket: Long March 6A

Launch pad: Launch Complex 9A

Location: Taiyuan Satellite Launch Center, People's Republic of China

...

Latest news about this satellite

There are no fresh news available about this satellite. Check back as we update our databases every day.


Newsletter sign-up

Weekly statistics, charts and insights to help you stay on top of the space industry.